Total_Precipitation_Accumulation
0.33 0.32 0.40 0.60 0.71 0.61 0.65 0.76 1.02 0.92 0.80 0.79 0.75 0.75 0.76 0.81 0.84 0.85 0.90 0.90 0.83 0.81 0.82 0.88 0.88 0.83 0.90 1.00 1.08 1.19 1.25 1.21 1.15 1.03 0.89 0.82 0.85 0.84 0.88 0.94 0.92 0.96 1.01 1.11
0.17 0.16 0.26 0.51 0.61 0.61 0.59 0.59 0.63 0.57 0.56 0.46 0.44 0.50 0.55 0.62 0.60 0.62 0.67 0.67 0.63 0.59 0.58 0.63 0.56 0.58 0.62 0.73 0.89 1.08 1.15 1.07 0.96 0.89 0.87 0.79 0.76 0.74 0.76 0.80 0.82 0.84 0.88 1.04
0.25 0.19 0.28 0.51 0.52 0.55 0.42 0.29 0.29 0.37 0.38 0.30 0.31 0.40 0.46 0.54 0.55 0.50 0.53 0.55 0.57 0.55 0.50 0.52 0.48 0.50 0.58 0.66 0.80 0.90 0.92 0.87 0.79 0.75 0.73 0.66 0.64 0.67 0.72 0.74 0.76 0.77 0.77 0.92
0.38 0.36 0.58 0.69 0.54 0.47 0.39 0.24 0.17 0.20 0.24 0.25 0.28 0.35 0.37 0.43 0.51 0.46 0.42 0.45 0.50 0.52 0.49 0.51 0.55 0.58 0.68 0.75 0.75 0.78 0.82 0.81 0.76 0.70 0.65 0.60 0.56 0.59 0.70 0.73 0.70 0.70 0.71 0.73
0.50 0.51 0.55 0.52 0.37 0.35 0.44 0.42 0.20 0.16 0.18 0.18 0.21 0.28 0.29 0.31 0.36 0.36 0.31 0.28 0.29 0.32 0.34 0.40 0.44 0.50 0.52 0.54 0.56 0.57 0.61 0.68 0.64 0.56 0.58 0.61 0.58 0.63 0.67 0.67 0.69 0.67 0.69 0.69
0.56 0.58 0.62 0.44 0.21 0.18 0.34 0.57 0.26 0.13 0.12 0.11 0.15 0.23 0.22 0.18 0.19 0.20 0.20 0.18 0.16 0.16 0.19 0.22 0.27 0.39 0.45 0.42 0.36 0.36 0.39 0.45 0.48 0.45 0.48 0.54 0.63 0.69 0.67 0.63 0.68 0.69 0.65 0.62
0.64 0.75 0.80 0.54 0.27 0.22 0.48 0.59 0.26 0.12 0.09 0.10 0.11 0.12 0.13 0.13 0.14 0.13 0.13 0.16 0.16 0.15 0.15 0.19 0.24 0.29 0.32 0.38 0.34 0.32 0.34 0.35 0.37 0.37 0.40 0.48 0.53 0.51 0.52 0.55 0.60 0.60 0.61 0.59
0.81 1.02 1.12 0.70 0.47 0.47 0.44 0.28 0.18 0.12 0.10 0.11 0.12 0.10 0.10 0.12 0.12 0.11 0.10 0.12 0.13 0.14 0.16 0.21 0.22 0.22 0.24 0.26 0.27 0.29 0.30 0.32 0.32 0.29 0.30 0.32 0.37 0.42 0.44 0.46 0.48 0.47 0.48 0.48
0.87 0.88 0.77 0.55 0.47 0.38 0.30 0.25 0.17 0.16 0.14 0.12 0.11 0.09 0.10 0.10 0.10 0.10 0.09 0.10 0.12 0.17 0.20 0.23 0.23 0.21 0.21 0.22 0.25 0.30 0.30 0.30 0.30 0.29 0.28 0.30 0.33 0.36 0.41 0.45 0.48 0.45 0.42 0.42
0.40 0.41 0.37 0.31 0.27 0.25 0.22 0.21 0.16 0.14 0.14 0.16 0.15 0.13 0.12 0.11 0.12 0.12 0.11 0.11 0.13 0.18 0.20 0.23 0.23 0.23 0.24 0.24 0.24 0.26 0.26 0.27 0.27 0.28 0.30 0.30 0.33 0.38 0.44 0.44 0.40 0.38 0.40 0.42
0.24 0.20 0.21 0.20 0.20 0.20 0.19 0.16 0.13 0.12 0.13 0.17 0.17 0.14 0.12 0.13 0.16 0.16 0.14 0.13 0.14 0.16 0.21 0.22 0.23 0.24 0.26 0.25 0.23 0.23 0.24 0.23 0.23 0.26 0.28 0.29 0.27 0.29 0.36 0.38 0.36 0.38 0.39 0.43
0.20 0.13 0.15 0.18 0.16 0.15 0.17 0.15 0.13 0.14 0.16 0.15 0.13 0.12 0.13 0.13 0.18 0.19 0.16 0.14 0.15 0.16 0.19 0.20 0.21 0.25 0.27 0.30 0.28 0.25 0.24 0.23 0.24 0.25 0.27 0.27 0.26 0.26 0.29 0.30 0.34 0.34 0.32 0.32
0.14 0.10 0.10 0.14 0.13 0.12 0.12 0.11 0.12 0.14 0.15 0.13 0.11 0.13 0.12 0.12 0.17 0.20 0.19 0.20 0.21 0.20 0.19 0.19 0.20 0.22 0.24 0.30 0.30 0.30 0.28 0.26 0.26 0.26 0.25 0.24 0.26 0.29 0.30 0.28 0.25 0.25 0.26 0.25
0.08 0.10 0.13 0.14 0.14 0.11 0.11 0.11 0.15 0.16 0.14 0.13 0.13 0.12 0.11 0.13 0.16 0.16 0.18 0.23 0.23 0.21 0.22 0.23 0.22 0.23 0.28 0.32 0.33 0.35 0.36 0.37 0.31 0.27 0.27 0.27 0.28 0.33 0.38 0.39 0.34 0.26 0.24 0.25
0.10 0.12 0.16 0.16 0.15 0.12 0.11 0.11 0.14 0.13 0.13 0.14 0.12 0.11 0.12 0.15 0.17 0.18 0.18 0.18 0.19 0.19 0.18 0.21 0.22 0.22 0.28 0.30 0.32 0.33 0.37 0.39 0.38 0.38 0.35 0.33 0.34 0.38 0.41 0.39 0.32 0.28 0.27 0.26
0.15 0.12 0.13 0.13 0.13 0.12 0.10 0.11 0.12 0.11 0.13 0.13 0.12 0.13 0.15 0.18 0.20 0.23 0.20 0.16 0.14 0.14 0.14 0.17 0.20 0.22 0.25 0.25 0.25 0.26 0.27 0.34 0.38 0.41 0.41 0.37 0.38 0.40 0.40 0.38 0.31 0.29 0.28 0.26
0.14 0.17 0.17 0.15 0.14 0.14 0.14 0.14 0.13 0.12 0.11 0.10 0.13 0.17 0.19 0.19 0.18 0.22 0.22 0.19 0.17 0.15 0.14 0.16 0.19 0.20 0.21 0.20 0.20 0.21 0.22 0.24 0.29 0.34 0.36 0.36 0.35 0.35 0.39 0.41 0.37 0.33 0.31 0.30
0.12 0.15 0.17 0.17 0.16 0.16 0.16 0.17 0.16 0.14 0.12 0.10 0.12 0.16 0.21 0.23 0.23 0.23 0.24 0.23 0.20 0.18 0.16 0.18 0.19 0.18 0.18 0.20 0.20 0.21 0.21 0.22 0.22 0.26 0.30 0.32 0.32 0.31 0.34 0.39 0.40 0.37 0.37 0.36
0.11 0.13 0.14 0.14 0.12 0.13 0.15 0.16 0.17 0.18 0.18 0.14 0.11 0.13 0.19 0.26 0.28 0.26 0.23 0.24 0.25 0.26 0.25 0.24 0.24 0.21 0.19 0.22 0.22 0.19 0.18 0.19 0.21 0.24 0.27 0.29 0.30 0.29 0.30 0.33 0.35 0.35 0.34 0.35
0.15 0.18 0.19 0.16 0.13 0.11 0.13 0.15 0.16 0.18 0.19 0.19 0.16 0.15 0.19 0.24 0.26 0.22 0.18 0.19 0.25 0.31 0.31 0.31 0.29 0.26 0.25 0.25 0.26 0.22 0.21 0.23 0.25 0.27 0.27 0.26 0.26 0.28 0.29 0.30 0.32 0.34 0.35 0.37
0.20 0.25 0.23 0.19 0.15 0.11 0.10 0.12 0.13 0.15 0.18 0.17 0.18 0.20 0.24 0.27 0.26 0.23 0.19 0.18 0.21 0.26 0.28 0.29 0.30 0.31 0.31 0.32 0.32 0.27 0.26 0.25 0.26 0.27 0.28 0.28 0.27 0.27 0.28 0.29 0.31 0.35 0.38 0.40
0.24 0.23 0.21 0.21 0.18 0.14 0.12 0.12 0.13 0.14 0.15 0.15 0.16 0.19 0.23 0.25 0.26 0.25 0.21 0.21 0.22 0.24 0.22 0.21 0.24 0.31 0.38 0.38 0.30 0.28 0.28 0.27 0.28 0.27 0.27 0.28 0.30 0.31 0.31 0.34 0.35 0.36 0.37 0.38
0.23 0.22 0.25 0.25 0.22 0.19 0.16 0.14 0.15 0.15 0.16 0.16 0.16 0.17 0.19 0.20 0.24 0.29 0.24 0.20 0.21 0.24 0.20 0.19 0.23 0.30 0.36 0.33 0.30 0.29 0.28 0.27 0.26 0.26 0.28 0.30 0.32 0.34 0.35 0.36 0.36 0.37 0.40 0.43
0.19 0.21 0.26 0.27 0.25 0.23 0.21 0.18 0.19 0.19 0.20 0.20 0.19 0.19 0.19 0.22 0.25 0.30 0.27 0.24 0.26 0.27 0.22 0.24 0.29 0.35 0.37 0.27 0.27 0.32 0.34 0.33 0.32 0.31 0.32 0.33 0.34 0.36 0.38 0.39 0.40 0.41 0.45 0.50
0.18 0.18 0.22 0.27 0.27 0.24 0.22 0.20 0.20 0.21 0.21 0.21 0.21 0.21 0.21 0.24 0.28 0.32 0.31 0.27 0.31 0.33 0.31 0.33 0.36 0.39 0.37 0.33 0.31 0.33 0.36 0.39 0.43 0.44 0.40 0.40 0.40 0.41 0.43 0.45 0.47 0.47 0.48 0.51
0.18 0.17 0.19 0.24 0.26 0.24 0.21 0.20 0.21 0.23 0.23 0.23 0.22 0.24 0.26 0.28 0.31 0.36 0.40 0.38 0.36 0.39 0.37 0.35 0.36 0.38 0.38 0.42 0.45 0.46 0.46 0.45 0.45 0.43 0.42 0.43 0.44 0.44 0.45 0.47 0.50 0.53 0.55 0.54
0.19 0.18 0.19 0.22 0.23 0.21 0.21 0.22 0.25 0.26 0.28 0.28 0.28 0.28 0.27 0.29 0.34 0.38 0.43 0.43 0.40 0.39 0.40 0.41 0.41 0.40 0.41 0.45 0.49 0.53 0.53 0.51 0.50 0.49 0.47 0.49 0.50 0.51 0.50 0.50 0.53 0.57 0.60 0.61